Location: Newark
(39.6867°N, 100.6772°W)
Time: 18:02:59
(UTC+00:00)

Vanguard 1 - Pass Details

Date: 18 October 2019
Orbit: 652 x 3831 km, 34.2° (Epoch: 11 November)

Event Time Altitude Azimuth Distance (km) Brightness Sun altitude
Rises 09:14:10 0° 281° (W) 6,860 - -42.4°
Reaches altitude 10° 09:19:21 10° 271° (W) 6,222 - -41.5°
Maximum altitude 09:35:20 28° 222° (SW) 5,455 - -38.7°
Exits shadow 09:42:23 25° 198° (SSW) 5,743 13.6 -37.4°
Drops below altitude 10° 09:52:47 10° 173° (S) 6,684 14.2 -35.6°
Sets 09:58:51 0° 162° (SSE) 7,415 14.5 -34.5°
